Regional Weather Roundup
Issued by NWS

Home | Current Version | Previous Version | Graphics & Text | Print | Product List | Glossary On
Versions: 1 2 3 4 5 6 7 8 9 10 11 12 13 14 15 16 17 18 19 20 21 22 23 24 25 26 27 28 29 30 31 32 33 34 35 36 37 38 39 40 41 42 43 44 45 46 47 48 49 50
613
ASUS44 KJAN 290803
RWRMS

MISSISSIPPI HOURLY WEATHER ROUNDUP
NATIONAL WEATHER SERVICE JACKSON MS
300 AM CDT SUN MAR 29 2015

NOTE: "FAIR: INDICATES FEW OR NO CLOUDS BELOW 12,000 FEET WITH NO
SIGNIFICANT WEATHER AND/OR OBSTRUCTIONS TO VISIBILITY.

MSZ001>002-007>008-010>013-018>021-025>028-034>036-290900-
NORTHWEST MISSISSIPPI

CITY           SKY/WX    TMP DP  RH WIND       PRES   REMARKS
CLARKSDALE       N/A     36  32  87 SE5       30.30S WCI  32
CLEVELAND      CLOUDY    40  34  80 E8        30.28S WCI  35
GREENWOOD      CLOUDY    41  29  62 E6        30.29F
GREENVILLE     PTCLDY    42  33  70 E8        30.26F
OLIVE BRANCH   CLEAR     32  32 100 E5        30.29F WCI  27
OXFORD         FAIR      32  28  86 CALM      30.31S
TUNICA         SUNNY     36  32  87 E5        30.30F WCI  32
$$

MSZ003>006-009-014>017-022>024-029>033-037>039-290900-
NORTHEAST MISSISSIPPI

CITY           SKY/WX    TMP DP  RH WIND       PRES   REMARKS
COLUMBUS AFB   CLOUDY    35  32  88 CALM      30.32R
CORINTH        FAIR      30  28  93 CALM      30.30F
GOLDN TRIANGLE CLOUDY    39  30  70 E6        30.31S WCI  35
STARKVILLE     CLOUDY    41  32  70 E3        30.32S
TUPELO         CLEAR     37  29  72 CALM      30.31S
$$

MSZ040-058-290900-
CENTRAL MISSISSIPPI

CITY           SKY/WX    TMP DP  RH WIND       PRES   REMARKS
JACKSON INTL   CLOUDY    43  31  62 E5        30.27F
JACKSON HAWKNS CLOUDY    44  31  60 E7        30.26F
MERIDIAN KEY   MOCLDY    38  35  89 CALM      30.31S
MERIDIAN NAS   NOT AVBL
RAYMOND        FAIR      45  39  81 E7        30.26S
VICKSBURG      LGT RAIN  48  34  58 SE12      30.24F
$$

MSZ059>079-290900-
SOUTH MISSISSIPPI

CITY           SKY/WX    TMP DP  RH WIND       PRES   REMARKS
BROOKHAVEN     FAIR      45  36  70 CALM      30.26F
HATTIESBURG    PTCLDY    42  34  73 CALM      30.30S
MCCOMB         CLOUDY    47  35  63 MISG      30.25S
NATCHEZ        CLEAR     50  36  57 SE8       30.22F
PINE BELT      MOCLDY    39  30  70 E3        30.29S
$$

MSZ080>082-290900-
COASTAL MISSISSIPPI

CITY           SKY/WX    TMP DP  RH WIND       PRES   REMARKS
BILOXI         CLEAR     49  35  58 E12       30.25F
PASCAGOULA     CLEAR     45  36  70 NE6       30.27F
GULFPORT       CLEAR     49  36  61 E7        30.25F
$$



USA.gov is the U.S. government's official web portal to all federal, state and local government web resources and services.